Flag for Poland Weather past 2 weeks in Rzeszów, Poland

Now
48 °F

Passing clouds.


Feels Like: 45 °F
Forecast: 44 / 54 °F
Wind: 7 mph from West

Location: Rzeszow-Jasionka

Current Time: Sep 22, 2014 at 11:22:10 PM

Latest Report: Sep 22, 2014 at 11:00 PM


Visibility: N/A

Pressure: 29.77 "Hg

Humidity: 94%

Dew point: 46 °F

Location of RzeszówLocation

Historic Weather in Rzeszów — Graph

°F

Rzeszów temperature yesterday

Maximum temperature yesterday: 66 °F (at 3:30 PM)
Minimum temperature yesterday: 57 °F (at 12:00 AM)
Average temperature yesterday: 60 °F

Past Weeks' High & Low Weather Summary

 TemperatureHumidityPressure
High77 °F (Sep 8, 12:00 PM)100% (Sep 8, 3:30 AM)30.21 "Hg (Sep 8, 3:30 AM)
Low45 °F (Sep 18, 5:00 AM)38% (Sep 18, 5:30 PM)29.62 "Hg (Sep 22, 8:00 AM)
Average61 °F81%30.03 "Hg
* Reported Sep 7 10:00 PM — Sep 22 10:00 PM, Rzeszów, Weather by CustomWeather, © 2014

Note: Actual official high and low records may vary slightly from our data, if they occured in-between our weather recording intervals... More about our weather records

Advertising

Rzeszów weather history for previous 24 hours

 ConditionsComfort  
Time TempWeatherWind HumidityBarometerVisibility
10:00 PM
Sep 22
52 °FClear.9 mph94%29.77 "Hg10 mi
9:30 PM52 °FClear.12 mph94%29.77 "Hg10 mi
9:00 PM52 °FClear.10 mph94%29.77 "Hg10 mi
8:30 PM50 °FClear.7 mph94%29.77 "Hg10 mi
8:00 PM50 °FClear.7 mph94%29.77 "Hg10 mi
7:30 PM50 °FClear.6 mph94%29.74 "Hg10 mi
7:00 PM52 °FPassing clouds.9 mph88%29.74 "HgN/A
6:30 PM54 °FPassing clouds.8 mph88%29.74 "HgN/A
6:00 PM55 °FScattered clouds.10 mph82%29.74 "HgN/A
5:30 PM57 °FPassing clouds.7 mph82%29.74 "HgN/A
5:00 PM57 °FPassing clouds.10 mph82%29.71 "HgN/A
4:30 PM55 °FScattered clouds.8 mph94%29.74 "HgN/A
4:00 PM55 °FScattered clouds.8 mph94%29.74 "HgN/A
3:30 PM55 °FScattered clouds.9 mph94%29.74 "HgN/A
3:00 PM54 °FSprinkles. Scattered clouds.7 mph94%29.74 "HgN/A
2:30 PM54 °FSprinkles. Scattered clouds.10 mph94%29.74 "Hg5 mi
2:00 PM54 °FPartly sunny.10 mph100%29.74 "HgN/A
1:30 PM54 °FSprinkles. Scattered clouds.10 mph94%29.74 "HgN/A
1:00 PM54 °FSprinkles. Passing clouds.10 mph94%29.74 "HgN/A
12:30 PM52 °FSprinkles. Passing clouds.13 mph100%29.74 "HgN/A
12:00 PM52 °FSprinkles. Broken clouds.12 mph94%29.74 "HgN/A
11:30 AM52 °FSprinkles. Partly sunny.14 mph94%29.74 "HgN/A
11:00 AM54 °FSprinkles. Partly sunny.16 mph94%29.71 "HgN/A
10:30 AM54 °FSprinkles. Scattered clouds.24 mph94%29.71 "HgN/A
10:00 AM55 °FRain showers. Broken clouds.20 mph94%29.68 "Hg2 mi
9:30 AM57 °FRain showers. Broken clouds.14 mph94%29.62 "Hg2 mi
9:00 AM61 °FPartly sunny.7 mph100%29.62 "HgN/A
8:30 AM61 °FScattered clouds.3 mph100%29.62 "Hg4 mi
8:00 AM61 °FPartly sunny.1 mph94%29.62 "Hg4 mi
7:30 AM59 °FPartly sunny.1 mph100%29.65 "Hg4 mi
7:00 AM59 °FFog.1 mph100%29.65 "Hg3 mi
6:30 AM59 °FPassing clouds.No wind100%29.65 "Hg4 mi
6:00 AM59 °FSprinkles. Passing clouds.2 mph94%29.68 "Hg4 mi
5:30 AM59 °FPassing clouds.3 mph100%29.68 "Hg5 mi
5:00 AM59 °FPassing clouds.3 mph100%29.68 "Hg5 mi
4:30 AM59 °FPassing clouds.3 mph100%29.68 "Hg5 mi
4:00 AM59 °FPassing clouds.5 mph100%29.71 "Hg5 mi
3:30 AM59 °FPassing clouds.5 mph94%29.71 "Hg4 mi
3:00 AM57 °FPassing clouds.1 mph100%29.71 "Hg4 mi
2:00 AM57 °FFog.3 mph94%29.74 "Hg3 mi
1:30 AM57 °FFog.3 mph94%29.74 "Hg2 mi
1:00 AM55 °FFog.3 mph100%29.74 "Hg2 mi
12:30 AM57 °FFog.2 mph100%29.74 "Hg1 mi
12:00 AM57 °FFog.2 mph100%29.77 "Hg1 mi
11:30 PM
Sep 21
57 °FFog.3 mph100%29.77 "Hg1 mi
11:00 PM57 °FSnow. Overcast.3 mph100%29.77 "Hg1 mi
Weather by CustomWeather, © 2014

See weather overviewHow to use our weather pages